Regional Weather Roundup
Issued by NWS

Home | Current Version | Previous Version | Text Only | Print | Product List | Glossary On
Versions: 1 2 3 4 5 6 7 8 9 10 11 12 13 14 15 16 17 18 19 20 21 22 23 24 25 26 27 28 29 30 31 32 33 34 35 36 37 38 39 40 41 42 43 44 45 46 47 48 49 50
000
ASUS44 KOUN 300700
RWROK

WEATHER ROUNDUP FOR OKLAHOMA
NATIONAL WEATHER SERVICE NORMAN OK
200 AM CDT THU JUL 30 2015

NOTE: "FAIR" INDICATES FEW OR NO CLOUDS BELOW 12,000 FEET WITH NO
      SIGNIFICANT WEATHER AND/OR OBSTRUCTIONS TO VISIBILITY.

OKZ001>007-009>012-014-015-017-300800-
NORTHWEST OKLAHOMA AND THE PANHANDLE

CITY           SKY/WX    TMP DP  RH WIND       PRES   REMARKS
GAGE           PTCLDY    71  67  87 NE6       30.18F
GUYMON         CLEAR     70  65  84 E7        30.25R
$$

OKZ016-021>023-033>039-044-045-300800-
SOUTHWEST OKLAHOMA

CITY           SKY/WX    TMP DP  RH WIND       PRES   REMARKS
LAWTON/REGL    PTCLDY    80  65  59 E5        30.07F
FREDERICK      MOCLDY    82  71  69 E8        30.05S
CLINTON        PTCLDY    76  71  85 N8        30.15S
HOBART         MOCLDY    79  74  84 E7        30.11R
$$

OKZ018>020-024>031-300800-
CENTRAL OKLAHOMA

CITY           SKY/WX    TMP DP  RH WIND       PRES   REMARKS
OKLAHOMA CITY  PTCLDY    78  71  79 E5        30.10S
OKC/WILEY POST CLEAR     80  73  79 NE7       30.11R
STILLWATER     CLEAR     77  72  84 NE7       30.12R
GUTHRIE        CLEAR     79  73  82 E9        30.11S
$$

OKZ008-013-054>072-300800-
NORTHEAST OKLAHOMA

CITY           SKY/WX    TMP DP  RH WIND       PRES   REMARKS
TULSA          PTCLDY    81  73  76 N6        30.10R
TULSA/JONES    CLEAR     81  73  76 NE6       30.10R
PONCA CITY     PTCLDY    79  69  71 E14       30.13R
BARTLESVILLE   PTCLDY    75  72  90 CALM      30.14R
MUSKOGEE       CLEAR     79  76  90 CALM      30.09S
$$

OKZ032-040>043-046>053-073>077-300800-
SOUTH CENTRAL/SOUTHEAST OKLAHOMA

CITY           SKY/WX    TMP DP  RH WIND       PRES   REMARKS
MCALESTER      CLEAR     78  73  84 CALM      30.08S
$$



USA.gov is the U.S. government's official web portal to all federal, state and local government web resources and services.